Regional Weather Roundup
Issued by NWS

Home | Current Version | Previous Version | Graphics & Text | Print | Product List | Glossary Off
Versions: 1 2 3 4 5 6 7 8 9 10 11 12 13 14 15 16 17 18 19 20 21 22 23 24 25 26 27 28 29 30 31 32 33 34 35 36 37 38 39 40 41 42 43 44 45 46 47 48 49 50

756
ASUS43 KMKX 201621
RWRWI

WISCONSIN REGIONAL WEATHER ROUNDUP
NATIONAL WEATHER SERVICE MILWAUKEE/SULLIVAN WI
1000 AM CST MON NOV 20 2017

NOTE: "FAIR" INDICATES FEW OR NO CLOUDS BELOW 12,000 FEET WITH NO
SIGNIFICANT WEATHER AND/OR OBSTRUCTIONS TO VISIBILITY.

WIZ001-002-006>008-014>016-023>028-201700-
NORTHWEST WISCONSIN

CITY           SKY/WX    TMP DP  RH WIND       PRES   REMARKS
SUPERIOR ARPT  CLOUDY    28  26  91 CALM      29.57F
ASHLAND        CLOUDY    29  25  85 CALM      29.60F
HAYWARD        CLOUDY    34  27  75 S9        29.59F WCI  27
SIREN          CLOUDY    36  29  75 SE5       29.57F WCI  32
CUMBERLAND     CLOUDY    32  28  86 SE6       29.59F WCI  26
RICE LAKE      CLOUDY    33  29  85 SE7       29.63F WCI  27
CHETEK         CLOUDY    33  29  85 E7        29.63F WCI  27
LADYSMITH      CLOUDY    36  29  78 S8        29.64F WCI  29
EAU CLAIRE     CLOUDY    36  28  73 S9        29.64F WCI  29
MENOMONIE      CLOUDY    38  31  75 SE6       29.63F WCI  34
NEW RICHMOND   CLOUDY    37  28  70 S9        29.59F WCI  31
OSCEOLA        CLOUDY    37  29  73 SE8       29.60F WCI  30
$$

WIZ003>005-009-010-017-018-201700-
NORTH CENTRAL WISCONSIN

CITY           SKY/WX    TMP DP  RH WIND       PRES   REMARKS
MANITOWISH WTR MOSUNNY   30  30 100 S6        29.62F WCI  24
ARBOR VITAE    CLOUDY    32  28  87 S8        29.62F WCI  25
WOODRUFF       CLOUDY    32  28  87 S8        29.62F WCI  25
RHINELANDER    CLOUDY    32  26  78 SW8       29.67S WCI  25
EAGLE RIVER    CLOUDY    32  28  84 S5        29.63F WCI  27
LAND O LAKES   CLOUDY    28  27  94 S5        29.65F WCI  23
PHILLIPS       CLOUDY    33  28  81 S7        29.62F WCI  27
TOMAHAWK       CLOUDY    31  27  85 CALM      29.67F
MEDFORD        CLOUDY    33  28  81 S8        29.66F WCI  25
MERRILL        CLOUDY    36  28  72 SW6       29.68F WCI  31
$$

WIZ029-030-035-036-043>047-201700-
CENTRAL WISCONSIN

CITY           SKY/WX    TMP DP  RH WIND       PRES   REMARKS
WAUSAU         CLOUDY    32  26  78 S5        29.68F WCI  27
MOSINEE        PTSUNNY   34  30  86 S9        29.71F WCI  26
MARSHFIELD     CLOUDY    33  27  78 S7        29.68F WCI  27
STEVENS POINT  CLOUDY    33  26  75 S9        29.72F WCI  26
WAUPACA        CLOUDY    38  29  68 S7        29.75F WCI  33
WAUTOMA        CLOUDY    37  27  67 S12       29.74F WCI  29
WISC RAPIDS    CLOUDY    37  28  70 SW10      29.72F WCI  30
CAMP DOUGLAS   PTSUNNY   37  27  65 S6        29.72F WCI  33
$$

WIZ011>013-019>022-031-037>040-048>050-201700-
NORTHEAST WISCONSIN

CITY           SKY/WX    TMP DP  RH WIND       PRES   REMARKS
ANTIGO         CLOUDY    32  27  80 S6        29.69F WCI  26
SHAWANO        CLOUDY    37  28  67 SW6       29.73F WCI  33
OCONTO         CLOUDY    34  26  72 SW7       29.76S WCI  28
STURGEON BAY   CLOUDY    35  27  72 S8        29.78S WCI  29
GREEN BAY      CLOUDY    36  30  79 S10       29.76F WCI  28
MANITOWOC      CLOUDY    39  27  62 SW10      29.78  WCI  32
APPLETON       MOSUNNY   36  25  64 S10       29.75F WCI  28
CLINTONVILLE   CLOUDY    36  27  69 SW7       29.74F WCI  30
OSHKOSH        CLOUDY    36  28  73 SW14      29.76F WCI  27
$$

WIZ032>034-041-042-053>061-201700-
SOUTHWEST WISCONSIN

CITY           SKY/WX    TMP DP  RH WIND       PRES   REMARKS
LA CROSSE      CLOUDY    41  29  62 S12       29.70F
SPARTA         CLOUDY    40  29  65 SW7       29.72F
VIROQUA        CLOUDY    40  31  69 S14G20    29.70F WCI  32
BOSCOBEL       CLOUDY    43  29  57 SW8       29.77F
PRAIRIE DU CHI CLOUDY    42  28  57 S9        29.75F
PLATTEVILLE    CLOUDY    42  33  70 S15       29.78F
$$

WIZ056-057-062-063-064-067-068-201700-
SOUTH CENTRAL WISCONSIN

CITY           SKY/WX    TMP DP  RH WIND       PRES   REMARKS
REEDSBURG      CLOUDY    40  29  64 SW9       29.75F WCI  34
BARABOO/DELLS  CLOUDY    39  27  62 SW10G16   29.75F WCI  32
LONE ROCK      SUNNY     42  31  64 SW6       29.78F
MINERAL POINT  SUNNY     41  32  70 S10G16    29.77F
MADISON        PTSUNNY   39  29  67 S10G20    29.79F WCI  32
MIDDLETON      SUNNY     43  29  59 SW14      29.79F
WATERTOWN      SUNNY     40  30  68 SW10      29.81F WCI  33
MONROE         SUNNY     37  30  75 SW15G24   29.80S WCI  28
JANESVILLE     MOSUNNY   43  30  61 SW15      29.83F
$$

WIZ051-052-058>065-066-070>072-201700-
SOUTHEAST WISCONSIN

CITY           SKY/WX    TMP DP  RH WIND       PRES   REMARKS
MILWAUKEE      PTSUNNY   42  28  57 SW15      29.84S
WAUKESHA       SUNNY     37  27  65 SW13G21   29.83F WCI  29
MILWAUKEE/TIMM SUNNY     41  25  52 SW16      29.83F
RACINE         SUNNY     43  28  55 SW13G24   29.85F
BURLINGTON     SUNNY     44  34  66 SW16G24   29.83F
KENOSHA        SUNNY     43  28  55 SW17G26   29.84F
FOND DU LAC    CLOUDY    37  26  64 SW15G24   29.78F WCI  28
SHEBOYGAN      CLOUDY    40  29  64 SW13      29.78F WCI  32
WEST BEND      CLOUDY    39  28  65 SW15G21   29.80F WCI  31
JUNEAU         CLOUDY    37  29  72 S14       29.81F WCI  28
$$

LSZ147-162-201700-
LAKE SUPERIOR

STATION/POSITION TIME  TEMP    WIND        PRES    WAVE
                       AIR SEA DIR/SP/G            HT/PER
                 (UTC) (F)     (DEG/KT/KT) (MB)    (FT/S)
DEVILS ISLAND    1600   33     170/  5/  7 1002.9F
SAXON HARBOR     1530   33      CALM  /  1 1002.7F
$$

LMZ867-665-643>646-201700-
LAKE MICHIGAN

STATION/POSITION TIME  TEMP    WIND        PRES    WAVE
                       AIR SEA DIR/SP/G            HT/PER
                 (UTC) (F)     (DEG/KT/KT) (MB)    (FT/S)
N MID LAKE BUOY  1550   39 48  200/ 12/ 14 1009.3F   2/ 5
NORTHPORT PIER   1540   38     170/  3/  6 1008.1F
KEWAUNEE LAKESHO 1554   38     210/  4/  6 1007.6F
SHEBOYGAN LAKESH 1600   39     230/ 16/ 18 1009.0F
PORT WASHINGTON  1530   41     250/ 14/ 20 1010.2F
MILWAUKEE LAKESH 1600   42     240/ 16/ 21   N/A
S MID LAKE BUOY  1550   43 49  250/ 23/ 27 1011.9F   7/ 6
KENOSHA   LAKESH 1600   44     230/ 15/ 22 1010.8
$$

TC  - TEMPERATURE IN CELSIUS
VSB - VISIBILITY IN STATUTE MILES
WCI - WIND CHILL INDEX
HX  - HEAT INDEX





USA.gov is the U.S. government's official web portal to all federal, state and local government web resources and services.